Flag for Canada Weather past 2 weeks in Whistler, British Columbia, Canada

Now
59 °F

Cool.


Feels Like: 59 °F
Forecast: 48 / 64 °F
Wind: 1 mph from South

Location: Squamish Airport

Current Time: May 25, 2015 at 12:40:59 AM

Latest Report: May 25, 2015 at 12:00 AM


Visibility: N/A

Pressure: 29.96 "Hg

Humidity: 85%

Dew point: 54 °F

Location of WhistlerLocation

Historic Weather in Whistler — Graph

°F

Whistler temperature yesterday

Maximum temperature yesterday: 66 °F (at 4:00 PM)
Minimum temperature yesterday: 57 °F (at 6:00 AM)
Average temperature yesterday: 61 °F

Past Weeks' High & Low Weather Summary

 TemperatureHumidityPressure
High80 °F (May 21, 4:00 PM)97% (May 13, 1:00 AM)30.15 "Hg (May 13, 1:00 AM)
Low48 °F (May 10, 6:00 AM)33% (May 10, 12:00 PM)29.71 "Hg (May 12, 1:00 PM)
Average61 °F74%29.93 "Hg
* Reported May 9 11:00 PM — May 24 11:00 PM, Whistler, Weather by CustomWeather, © 2015

Note: Actual official high and low records may vary slightly from our data, if they occured in-between our weather recording intervals... More about our weather records

Advertising

Whistler weather history for previous 24 hours

 ConditionsComfort  
Time TempWeatherWind HumidityBarometerVisibility
11:00 PM
Sun, May 24
58 °FCool.1 mph86%29.97 "HgN/A
10:00 PM59 °FCool.2 mph80%29.97 "HgN/A
9:00 PM60 °FCool.5 mph78%29.96 "HgN/A
8:00 PM62 °FCool.5 mph71%29.96 "HgN/A
7:00 PM64 °FMild.5 mph67%29.96 "HgN/A
6:00 PM64 °FMild.6 mph68%29.96 "HgN/A
5:00 PM66 °FMild.9 mph62%29.96 "HgN/A
4:00 PM66 °FMild.10 mph64%29.97 "HgN/A
3:00 PM66 °FMild.8 mph65%29.98 "HgN/A
2:00 PM65 °FMild.7 mph69%30.01 "HgN/A
1:00 PM66 °FMild.10 mph66%30.02 "HgN/A
12:00 PM65 °FMild.8 mph64%30.05 "HgN/A
11:00 AM65 °FMild.9 mph64%30.06 "HgN/A
10:00 AM62 °FCool.5 mph74%30.07 "HgN/A
9:00 AM58 °FCool.5 mph84%30.09 "HgN/A
8:00 AM59 °FCool.5 mph81%30.10 "HgN/A
7:00 AM58 °FCool.No wind84%30.11 "HgN/A
6:00 AM57 °FCool.1 mph91%30.11 "HgN/A
5:00 AM58 °FCool.No wind84%30.10 "HgN/A
4:00 AM58 °FCool.No wind89%30.10 "HgN/A
3:00 AM58 °FCool.No wind89%30.11 "HgN/A
2:00 AM58 °FCool.No wind81%30.12 "HgN/A
1:00 AM58 °FCool.No wind89%30.13 "HgN/A
12:00 AM58 °FCool.1 mph89%30.12 "HgN/A
Weather by CustomWeather, © 2015

See weather overviewHow to use our weather pages